Weather History for KEXX - January, 2013

Change the Weather History Date:

Thursday, January 10, 2013

  Actual Average (KINT) Record (KINT)
Temperature  
Mean Temperature 52 °F -  
Max Temperature 63 °F 48 °F 66 °F (2002)
Min Temperature 41 °F 31 °F -2 °F (1970)
Degree Days  
Heating Degree Days 13    
Growing Degree Days 2 (Base 50)    
Moisture  
Dew Point 39 °F    
Average Humidity 67    
Maximum Humidity 100    
Minimum Humidity 36    
Precipitation  
Precipitation 0.00 in - - ()
Sea Level Pressure  
Sea Level Pressure 30.45 in    
Wind  
Wind Speed 1 mph (NE)    
Max Wind Speed 10 mph    
Max Gust Speed -    
Visibility 9 miles    
Events      
Averages and records for this station are not official NWS values.
T = Trace of Precipitation, MM = Missing Value Source: NWS Daily Summary

Daily Weather History Graph

Daily Weather History Graph

Search for Another Location

Airport or City:

Trip Planner

Search our weather history database for the weather conditions in past years. The results will help you decide how hot, cold, wet, or windy it might be!

Date:

Astronomy

Jan. 10, 2013 Rise Set
Actual Time 7:31 AM EST 5:26 PM EST
Civil Twilight 7:03 AM EST 5:54 PM EST
Nautical Twilight 6:31 AM EST 6:26 PM EST
Astronomical Twilight 6:01 AM EST 6:57 PM EST
Moon 6:09 AM EST (1/10) 4:32 PM EST (1/10)
Length of Visible Light 10h 51m
Length of Day
9h 55m
Waning Crescent, 2% of the Moon is Illuminated
Jan 10
Waning Crescent
Jan 11
New
Jan 18
First Quarter
Jan 26
Full
Feb 3
Last Quarter

Hourly Weather History & Observations

Time (EST) Temp. Dew Point Humidity Pressure Visibility Wind Dir Wind Speed Gust Speed Precip Events Conditions
12:15 AM 47.7 °F 47.7 °F 100% 30.43 in 10.0 mi Calm Calm - N/A   Clear
12:35 AM 47.5 °F 47.5 °F 100% 30.44 in 10.0 mi Calm Calm - N/A   Clear
12:55 AM 46.8 °F 46.8 °F 100% 30.45 in 10.0 mi Calm Calm - N/A   Clear
1:15 AM 47.3 °F 47.3 °F 100% 30.44 in 10.0 mi Calm Calm - N/A   Clear
1:35 AM 47.3 °F 47.3 °F 100% 30.44 in 10.0 mi Calm Calm - N/A   Clear
1:55 AM 45.7 °F 45.7 °F 100% 30.44 in 7.0 mi Calm Calm - N/A   Clear
3:15 AM 46.4 °F 46.4 °F 100% 30.44 in 7.0 mi Calm Calm - N/A   Clear
3:35 AM 44.8 °F 44.8 °F 100% 30.44 in 5.0 mi Calm Calm - N/A   Clear
3:55 AM 44.1 °F 44.1 °F 100% 30.44 in 7.0 mi Calm Calm - N/A   Clear
4:15 AM 44.6 °F 44.6 °F 100% 30.43 in 5.0 mi Calm Calm - N/A   Clear
4:35 AM 43.9 °F 43.9 °F 100% 30.43 in 4.0 mi Calm Calm - N/A   Clear
4:55 AM 44.8 °F 44.8 °F 100% 30.44 in 5.0 mi Calm Calm - N/A   Clear
5:15 AM 43.7 °F 43.7 °F 100% 30.43 in 4.0 mi Calm Calm - N/A   Clear
5:35 AM 43.3 °F 43.3 °F 100% 30.44 in 3.0 mi Calm Calm - N/A   Clear
5:55 AM 43.5 °F 43.5 °F 100% 30.44 in 5.0 mi Calm Calm - N/A   Clear
6:15 AM 43.9 °F 43.9 °F 100% 30.45 in 4.0 mi Calm Calm - N/A   Clear
6:35 AM 43.5 °F 43.5 °F 100% 30.46 in 3.0 mi Calm Calm - N/A   Clear
6:55 AM 41.5 °F 41.5 °F 100% 30.46 in 3.0 mi Calm Calm - N/A   Clear
7:35 AM 41.2 °F 41.2 °F 100% 30.49 in 7.0 mi Calm Calm - N/A   Clear
7:55 AM 43.0 °F 43.0 °F 100% 30.50 in 5.0 mi Calm Calm - N/A   Clear
8:15 AM 43.2 °F 43.2 °F 100% 30.50 in 4.0 mi Calm Calm - N/A   Clear
8:35 AM 44.8 °F 44.8 °F 100% 30.50 in 5.0 mi Calm Calm - N/A   Clear
8:55 AM 49.8 °F 49.8 °F 100% 30.50 in 5.0 mi Calm Calm - N/A   Clear
9:15 AM 51.8 °F 48.0 °F 87% 30.50 in 10.0 mi NE 3.5 mph - N/A   Clear
9:35 AM 53.6 °F 44.4 °F 71% 30.51 in 10.0 mi NE 5.8 mph - N/A   Clear
10:15 AM 57.6 °F 39.7 °F 51% 30.51 in 10.0 mi ENE 10.4 mph - N/A   Clear
10:55 AM 59.9 °F 41.0 °F 50% 30.51 in 10.0 mi NE 4.6 mph - N/A   Clear
11:15 AM 61.0 °F 38.1 °F 43% 30.50 in 10.0 mi ENE 6.9 mph - N/A   Clear
11:35 AM 63.5 °F 36.5 °F 37% 30.48 in 10.0 mi East 6.9 mph - N/A   Clear
11:55 AM 62.6 °F 36.5 °F 38% 30.47 in 10.0 mi ENE 5.8 mph - N/A   Clear
12:15 PM 62.4 °F 36.7 °F 38% 30.46 in 10.0 mi NE 4.6 mph - N/A   Clear
12:35 PM 62.8 °F 37.6 °F 39% 30.45 in 10.0 mi NNE 3.5 mph - N/A   Clear
12:55 PM 61.7 °F 36.5 °F 39% 30.45 in 10.0 mi NE 3.5 mph - N/A   Clear
1:15 PM 61.5 °F 35.8 °F 38% 30.44 in 10.0 mi NE 3.5 mph - N/A   Clear
1:35 PM 61.5 °F 34.7 °F 37% 30.44 in 10.0 mi NNE 4.6 mph - N/A   Clear
1:55 PM 61.3 °F 34.7 °F 37% 30.44 in 10.0 mi ENE 4.6 mph - N/A   Clear
2:35 PM 61.5 °F 35.2 °F 37% 30.44 in 10.0 mi NE 4.6 mph - N/A   Clear
2:55 PM 61.3 °F 34.7 °F 37% 30.43 in 10.0 mi NE 3.5 mph - N/A   Clear
3:15 PM 61.7 °F 34.9 °F 37% 30.43 in 10.0 mi NE 4.6 mph - N/A   Clear
3:35 PM 61.5 °F 34.0 °F 36% 30.43 in 10.0 mi ENE 3.5 mph - N/A   Clear
3:55 PM 61.2 °F 34.2 °F 36% 30.44 in 10.0 mi NE 3.5 mph - N/A   Clear
4:15 PM 61.0 °F 34.2 °F 37% 30.43 in 10.0 mi NE 3.5 mph - N/A   Clear
4:35 PM 60.3 °F 34.3 °F 38% 30.43 in 10.0 mi ENE 4.6 mph - N/A   Clear
4:55 PM 59.4 °F 34.0 °F 39% 30.44 in 10.0 mi NE 3.5 mph - N/A   Clear
5:15 PM 58.6 °F 33.8 °F 39% 30.44 in 10.0 mi Calm Calm - N/A   Clear
5:35 PM 57.6 °F 33.4 °F 40% 30.45 in 10.0 mi Calm Calm - N/A   Clear
5:55 PM 55.9 °F 34.0 °F 44% 30.45 in 10.0 mi Calm Calm - N/A   Clear
6:15 PM 55.0 °F 34.0 °F 45% 30.45 in 10.0 mi Calm Calm - N/A   Clear
6:35 PM 55.4 °F 33.6 °F 44% 30.45 in 10.0 mi NE 3.5 mph - N/A   Clear
6:55 PM 54.0 °F 33.8 °F 46% 30.45 in 10.0 mi Calm Calm - N/A   Clear
7:15 PM 53.2 °F 34.2 °F 48% 30.44 in 10.0 mi Calm Calm - N/A   Clear
7:35 PM 53.2 °F 33.8 °F 48% 30.44 in 10.0 mi Calm Calm - N/A   Clear
7:55 PM 52.9 °F 33.8 °F 48% 30.44 in 10.0 mi Calm Calm - N/A   Clear
8:15 PM 49.5 °F 35.2 °F 58% 30.44 in 10.0 mi Calm Calm - N/A   Clear
8:35 PM 49.8 °F 34.7 °F 56% 30.44 in 10.0 mi Calm Calm - N/A   Clear
8:55 PM 49.3 °F 34.9 °F 58% 30.44 in 10.0 mi North 3.5 mph - N/A   Clear
9:15 PM 50.2 °F 35.1 °F 56% 30.43 in 10.0 mi NNE 3.5 mph - N/A   Clear
9:35 PM 49.3 °F 35.6 °F 59% 30.42 in 10.0 mi Calm Calm - N/A   Clear
9:55 PM 49.3 °F 36.0 °F 60% 30.42 in 10.0 mi NNE 3.5 mph - N/A   Clear
10:15 PM 49.3 °F 36.7 °F 62% 30.42 in 10.0 mi NNE 3.5 mph - N/A   Clear
10:35 PM 49.1 °F 37.4 °F 64% 30.41 in 10.0 mi Calm Calm - N/A   Clear
10:55 PM 49.6 °F 38.3 °F 65% 30.41 in 10.0 mi NNE 3.5 mph - N/A   Clear
11:15 PM 49.3 °F 38.3 °F 66% 30.40 in 10.0 mi NNE 3.5 mph - N/A   Scattered Clouds
11:35 PM 49.3 °F 38.8 °F 67% 30.40 in 10.0 mi Calm Calm - N/A   Scattered Clouds
11:55 PM 49.5 °F 39.4 °F 68% 30.39 in 10.0 mi Calm Calm - N/A   Scattered Clouds